Location: Bittkow
(50.3000°N, 19.0000°E)
Time: 12:43:13
(UTC+00:00)

Cosmos 990 Rocket - Pass Details

Date: 19 September 2020
Orbit: 746 x 769 km, 74.0° (Epoch: 23 October)

Event Time Altitude Azimuth Distance (km) Brightness Sun altitude
Rises 02:38:23 0° 337° (NNW) 3,216 7.3 -17.4°
Reaches altitude 10° 02:40:46 10° 339° (NNW) 2,290 6.5 -17.1°
Maximum altitude 02:45:57 71° 64° (ENE) 804 4.3 -16.3°
Drops below altitude 10° 02:51:08 10° 149° (SSE) 2,289 6.6 -15.6°
Sets 02:53:31 0° 151° (SSE) 3,214 7.3 -15.2°
